DW1996 Weather Reports


Display with metric or nautical units.
time (UTC)temp
F
wind
direction
speed
MPH
gust
MPH
rain 1hr
in
rain 24hr
in
rain mn
in
humidity
%
barometer
mb
20260505183012 87 178 12.0 20.0 0.00 0.00 0.00 69 1006.4
20260505181506 87 187 10.0 20.0 0.00 0.00 0.00 70 1006.5
20260505180005 86 202 12.0 20.0 0.00 0.00 0.00 69 1006.7
20260505174503 88 167 12.0 23.0 0.00 0.00 0.00 70 1006.8
20260505173001 86 178 11.0 25.0 0.00 0.00 0.00 71 1006.8
20260505171605 87 162 12.0 21.0 0.00 0.00 0.00 71 1006.9
20260505170058 86 211 12.0 20.0 0.00 0.00 0.00 72 1007.0
20260505164555 85 226 10.0 21.0 0.00 0.00 0.00 74 1007.2
20260505163053 84 194 10.0 16.0 0.00 0.00 0.00 74 1007.5
20260505161552 84 161 8.0 19.0 0.00 0.00 0.00 75 1007.5
20260505153048 83 186 12.0 20.0 0.00 0.00 0.00 76 1007.5
20260505151547 83 175 9.0 19.0 0.00 0.00 0.00 75 1007.5
20260505124523 77 198 1.0 10.0 0.00 0.00 0.00 89 1007.1
20260505123028 77 218 3.0 10.0 0.00 0.00 0.00 89 1007.1
20260505121522 76 205 2.0 9.0 0.00 0.00 0.00 89 1007.1
20260505120020 76 182 4.0 10.0 0.00 0.00 0.00 89 1007.0
20260505114518 77 194 4.0 12.0 0.00 0.00 0.00 89 1007.0
20260505113017 77 198 3.0 12.0 0.00 0.00 0.00 89 1007.1
20260505111520 76 162 3.0 12.0 0.00 0.00 0.00 89 1007.0
20260505101513 76 211 6.0 11.0 0.00 0.00 0.00 88 1007.0
20260505100012 76 165 5.0 10.0 0.00 0.00 0.00 88 1007.1
20260505094510 76 193 4.0 10.0 0.00 0.00 0.00 88 1007.3
20260505093011 76 181 5.0 10.0 0.00 0.00 0.00 88 1007.3
20260505091507 76 197 5.0 11.0 0.00 0.00 0.00 88 1007.5
20260505090008 76 192 4.0 11.0 0.00 0.00 0.00 88 1007.3
20260505084504 76 166 5.0 11.0 0.00 0.00 0.00 87 1007.7
20260505083003 76 216 3.0 10.0 0.00 0.00 0.00 87 1007.7
20260505081502 76 174 5.0 10.0 0.00 0.00 0.00 87 1007.6
20260505080110 76 200 6.0 12.0 0.00 0.00 0.00 86 1007.7
20260505074558 76 192 5.0 12.0 0.00 0.00 0.00 86 1007.9
20260505073100 76 199 4.0 10.0 0.00 0.00 0.00 86 1008.2
20260505071555 76 201 4.0 9.0 0.00 0.00 0.00 85 1008.2
20260505070057 76 174 5.0 10.0 0.00 0.00 0.00 85 1008.4
20260505064622 76 193 4.0 11.0 0.00 0.00 0.00 85 1008.4
20260505063047 76 196 5.0 11.0 0.00 0.00 0.00 85 1008.9
20260505061544 76 163 5.0 11.0 0.00 0.00 0.00 85 1008.8
20260505060145 76 175 4.0 11.0 0.00 0.00 0.00 84 1009.1
20260505054547 76 205 6.0 11.0 0.00 0.00 0.00 84 1009.2
20260505053036 76 194 5.0 10.0 0.00 0.00 0.00 83 1009.5
20260505051535 76 152 6.0 11.0 0.00 0.00 0.00 83 1009.5
20260505041529 77 182 6.0 12.0 0.00 0.00 0.00 82 1009.9
20260505040031 77 214 5.0 10.0 0.00 0.00 0.00 82 1010.0
20260505034532 77 188 6.0 12.0 0.00 0.00 0.00 82 1010.0
20260505033030 77 182 6.0 12.0 0.00 0.00 0.00 81 1009.9
20260505031527 77 157 8.0 14.0 0.00 0.00 0.00 81 1009.8
20260505030041 77 207 6.0 14.0 0.00 0.00 0.00 80 1009.7
20260505024525 77 144 4.0 12.0 0.00 0.00 0.00 80 1009.6
20260505023027 77 121 7.0 15.0 0.00 0.00 0.00 79 1009.3
20260505021525 77 142 8.0 15.0 0.00 0.00 0.00 79 1009.1
20260505020024 77 165 7.0 17.0 0.00 0.00 0.00 79 1009.0
20260505014525 77 171 7.0 15.0 0.00 0.00 0.00 78 1009.1
20260505013022 77 196 5.0 16.0 0.00 0.00 0.00 77 1009.2
20260505011523 77 157 6.0 14.0 0.00 0.00 0.00 77 1009.3
20260505010020 78 144 9.0 17.0 0.00 0.00 0.00 76 1009.2
20260505004533 78 161 7.0 14.0 0.00 0.00 0.00 75 1009.3
20260505003019 78 163 8.0 14.0 0.00 0.00 0.00 75 1009.3
20260505001519 79 156 8.0 18.0 0.00 0.00 0.00 74 1009.4
20260505000018 79 165 9.0 17.0 0.00 0.00 0.00 73 1009.4
20260504234519 80 181 5.0 15.0 0.00 0.00 0.00 72 1009.7
20260504233020 80 151 5.0 14.0 0.00 0.00 0.00 71 1009.9
20260504231514 80 182 9.0 16.0 0.00 0.00 0.00 71 1009.9
20260504230014 80 163 8.0 17.0 0.00 0.00 0.00 71 1009.8
20260504224513 80 150 8.0 18.0 0.00 0.00 0.00 70 1009.7
20260504223013 81 147 10.0 17.0 0.00 0.00 0.00 68 1009.8
20260504221513 81 128 10.0 18.0 0.00 0.00 0.00 68 1009.7
20260504220011 82 194 12.0 19.0 0.00 0.00 0.00 66 1009.6
20260504214507 82 163 11.0 17.0 0.00 0.00 0.00 66 1010.0
20260504213016 82 188 7.0 15.0 0.00 0.00 0.00 66 1010.2
20260504211503 83 157 8.0 15.0 0.00 0.00 0.00 65 1010.4
20260504210002 83 168 9.0 18.0 0.00 0.00 0.00 65 1010.5
20260504204600 83 148 10.0 19.0 0.00 0.00 0.00 65 1010.6
20260504203059 83 138 9.0 18.0 0.00 0.00 0.00 65 1010.8
20260504201601 83 167 8.0 19.0 0.00 0.00 0.00 64 1011.0
20260504200056 83 142 9.0 19.0 0.00 0.00 0.00 64 1011.3
20260504194602 84 186 9.0 17.0 0.00 0.00 0.00 62 1011.2
20260504193055 84 157 12.0 21.0 0.00 0.00 0.00 62 1011.4
20260504191613 83 119 9.0 20.0 0.00 0.00 0.00 64 1011.5
20260504190050 83 138 11.0 20.0 0.00 0.00 0.00 63 1011.8
20260504184556 84 167 8.0 17.0 0.00 0.00 0.00 62 1011.8